Hourly Data Report for December 26, 2020

FORT GOOD HOPE CS
NORTHWEST TERRITORIES
Current Station Operator: ECCC - MSC

66°14'32.044" N
128°38'39.081" W
81.70 m
2201450
71491
ZGH

Download Data

Hourly Data (December 2020)
Hourly Data Report for December 26, 2020
TIME
LST
Temp Definition
°C
Dew Point Definition
°C
Rel Hum Definition
%
Precip. Amount Definition
mm

Wind Dir Definition
10's deg

Wind Spd Definition
km/h
Visibility Definition
km
Stn Press Definition
kPa
Hmdx Definition


Wind Chill Definition


Weather Definition


00:00 -24.9 -27.7 77 0.0 9 1   100.10   -26 LegendNANA
01:00 -24.9 -27.8 77 0.0 11 2   100.06   -27 LegendNANA
02:00 -23.2 -25.9 79 0.0 9 2   100.03   -25 LegendNANA
03:00 -23.6 -26.4 78 0.0 8 1   100.03   -25 LegendNANA
04:00 -23.5 -26.2 79 0.0 10 2   99.97   -25 LegendNANA
05:00 -23.6 -26.3 78 0.0 11 2   99.89   -26 LegendNANA
06:00 -22.3 -24.9 79 0.0 9 8   99.82   -29 LegendNANA
07:00 -22.7 -25.4 79 0.0 9 7   99.70   -29 LegendNANA
08:00 -23.1 -25.7 79 0.0 11 5   99.71   -28 LegendNANA
09:00 -22.4 -24.9 80 0.0 11 5   99.66   -27 LegendNANA
10:00 -21.7 -24.3 80 0.0 8 4   99.64   -25 LegendNANA
11:00 -22.1 -24.7 79 0.0 9 6   99.57   -27 LegendNANA
12:00 -22.6 -25.2 79 0.0 10 4   99.52   -26 LegendNANA
13:00 -21.3 -23.9 80 0.0 10 4   99.50   -25 LegendNANA
14:00 -21.2 -23.8 80 0.0 10 5   99.46   -26 LegendNANA
15:00 -20.8 -23.4 80 0.0 10 5   99.43   -25 LegendNANA
16:00 -20.7 -23.1 81 0.0 10 3   99.42   -23 LegendNANA
17:00 -20.8 -23.3 81 0.0 10 3   99.42   -23 LegendNANA
18:00 -21.4 -23.9 80 0.0 2 1   99.45   -22 LegendNANA
19:00 -19.9 -22.3 81 0.0 6 2   99.49   -22 LegendNANA
20:00 -19.6 -22.0 81 0.0   0   99.49     LegendNANA
21:00 -20.1 -22.5 81 0.0 10 3   99.49   -23 LegendNANA
22:00 -20.2 -22.7 81 0.0 5 1   99.51   -21 LegendNANA
23:00 -20.8 -23.3 80 0.0 35 1   99.58   -22 LegendNANA

Notes on Data Quality.

Legend

  • E = Estimated
  • M = Missing
  • NA = Not Available*
  • [empty] = Indicates an unobserved value
Date modified: